Change the Weather History Date:

Tuesday, May 28, 2013

  Actual Average Record
Temperature  
Mean Temperature 84 °F -  
Max Temperature 95 °F 81 °F 97 °F (2006)
Min Temperature 71 °F 57 °F 42 °F (1992)
Cooling Degree Days 19    
Growing Degree Days 34 (Base 50)    
Moisture  
Dew Point 64 °F    
Average Humidity 59    
Maximum Humidity 76    
Minimum Humidity 28    
Precipitation  
Precipitation 0.00 in - - ()
Sea Level Pressure  
Sea Level Pressure 29.57 in    
Wind  
Wind Speed 24 mph (South)    
Max Wind Speed 30 mph    
Max Gust Speed 41 mph    
Visibility 10 miles    
Events      
Averages and records for this station are not official NWS values.
T = Trace of Precipitation, MM = Missing Value Source: NWS Daily Summary

Daily Weather History Graph

Daily Weather History Graph

Search for Another Location

Airport or City:

Trip Planner

Search our weather history database for the weather conditions in past years. The results will help you decide how hot, cold, wet, or windy it might be!

Date:

Astronomy

May. 28, 2013 Rise Set
Actual Time 6:24 AM CDT 8:48 PM CDT
Civil Twilight 5:54 AM CDT 9:18 PM CDT
Nautical Twilight 5:18 AM CDT 9:55 PM CDT
Astronomical Twilight 4:38 AM CDT 10:35 PM CDT
Moon No Moon Rise 10:11 AM CDT (5/28)
Length of Visible Light 15h 23m
Length of Day
14h 24m
Waning Gibbous, 82% of the Moon is Illuminated
May 28
Waning Gibbous
May 31
Last Quarter
Jun 8
New
Jun 16
First Quarter
Jun 23
Full

Hourly Weather History & Observations

Time (CDT) Temp. Heat Index Dew Point Humidity Pressure Visibility Wind Dir Wind Speed Gust Speed Precip Events Conditions
12:53 AM 77.0 °F - 64.0 °F 64% 29.55 in 10.0 mi South 28.8 mph 38.0 mph N/A   Clear
1:53 AM 77.0 °F - 64.9 °F 66% 29.55 in 10.0 mi SSW 25.3 mph 40.3 mph N/A   Clear
2:53 AM 75.9 °F - 64.9 °F 69% 29.55 in 10.0 mi SSW 24.2 mph 33.4 mph N/A   Clear
3:53 AM 75.0 °F - 64.9 °F 71% 29.55 in 10.0 mi South 24.2 mph 35.7 mph N/A   Clear
4:53 AM 73.9 °F - 64.9 °F 73% 29.56 in 10.0 mi SSW 21.9 mph 31.1 mph N/A   Clear
5:53 AM 73.9 °F - 64.9 °F 73% 29.56 in 10.0 mi SSW 21.9 mph 29.9 mph N/A   Clear
6:53 AM 73.0 °F - 64.9 °F 76% 29.57 in 10.0 mi SSW 20.7 mph - N/A   Clear
7:53 AM 75.0 °F - 66.0 °F 73% 29.58 in 10.0 mi SSW 23.0 mph 28.8 mph N/A   Clear
8:53 AM 78.1 °F - 66.0 °F 66% 29.59 in 10.0 mi SSW 25.3 mph 31.1 mph N/A   Clear
9:53 AM 81.0 °F 82.7 °F 64.9 °F 58% 29.60 in 10.0 mi SSW 24.2 mph 33.4 mph N/A   Clear
10:53 AM 84.0 °F 85.8 °F 64.9 °F 53% 29.59 in 10.0 mi SSW 21.9 mph 32.2 mph N/A   Clear
11:53 AM 86.0 °F 87.6 °F 64.9 °F 49% 29.60 in 10.0 mi South 18.4 mph 29.9 mph N/A   Clear
12:53 PM 89.1 °F 90.3 °F 64.0 °F 43% 29.59 in 10.0 mi SSW 21.9 mph 33.4 mph N/A   Clear
1:53 PM 90.0 °F 91.3 °F 64.0 °F 42% 29.59 in 10.0 mi SSW 27.6 mph 39.1 mph N/A   Clear
2:53 PM 91.0 °F 92.6 °F 64.0 °F 41% 29.56 in 10.0 mi South 27.6 mph 35.7 mph N/A   Clear
3:53 PM 95.0 °F 94.8 °F 60.1 °F 31% 29.53 in 10.0 mi South 25.3 mph 40.3 mph N/A   Partly Cloudy
4:53 PM 93.9 °F 92.2 °F 55.9 °F 28% 29.52 in 10.0 mi South 27.6 mph 38.0 mph N/A   Clear
5:53 PM 84.9 °F 86.1 °F 64.0 °F 49% 29.52 in 10.0 mi SSE 29.9 mph 41.4 mph N/A   Clear
6:53 PM 79.0 °F - 63.0 °F 58% 29.55 in 10.0 mi South 26.5 mph 33.4 mph N/A   Clear
7:53 PM 77.0 °F - 62.1 °F 60% 29.57 in 10.0 mi SSE 25.3 mph 31.1 mph N/A   Clear
8:53 PM 75.0 °F - 62.1 °F 64% 29.60 in 10.0 mi SE 9.2 mph 17.3 mph N/A   Clear
9:53 PM 73.9 °F - 62.1 °F 66% 29.63 in 10.0 mi SE 18.4 mph 25.3 mph N/A   Clear
10:53 PM 73.0 °F - 63.0 °F 71% 29.64 in 10.0 mi SE 17.3 mph 23.0 mph N/A   Clear
11:53 PM 71.1 °F - 63.0 °F 75% 29.64 in 10.0 mi SSE 12.7 mph - N/A   Clear